www.pogodaiklimat.ru

Погода и климат >> Архив погоды >> Россия >> Ивановская область >> Иваново


АРХИВ ПОГОДЫ в Иванове

Время (UTC), дата Ветер
(напр.,м/с)
 
Видим.   Явления Облачность Т
(С)
Тd
(С)
f
(%)
Тe
(С)
Тes
(С)
Комфортность P
(гПа)
Po
(гПа)
Тmin
(С)
Tmax
(С)
R
(мм)
R24
(мм)
S
(см)
03 19.04 С 1 10 км 3/0
[Ac trans]
+1.4 -7.2 53 0 +1 по сезону 1032.1 1016.1 +1.2
06 19.04 СВ 2 10 км 3/0
[Ci fib]
+7.2 -8.7 31 +6 +12 тепло 1032.1 1016.5
09 19.04 С 3 10 км 4/4 1000 м
[Cu hum]
+9.3 -8.8 27 +8 +13 по сезону 1031.2 1015.7
12 19.04 С 3
{11}
10 км 4/4 1000 м
[Cu hum]
+11.0 -8.6 24 +10 +14 по сезону 1029.4 1014.0
15 19.04 СЗ 3 10 км 4/0
[Ci fib]
+10.9 -7.3 27 +10 +10 тепло 1027.8 1012.4 +11.5
18 19.04 ЮВ 1 10 км 3/0
[Ci fib]
+3.0 -4.9 56 +2 +2 по сезону 1028.0 1012.2
21 19.04 ЮВ 1 10 км 3/0
[Ci fib]
-1.3 -4.3 80 -3 -3 прохладно 1027.5 1011.4
00 20.04 ЮВ 1 10 км 3/0
[Ci fib]
-2.2 -4.2 86 -4 -4 прохладно 1026.6 1010.5
03 20.04 штиль 0 10 км 3/0
[Ci fib]
-1.8 -3.6 87 -3 -2 прохладно 1025.7 1009.6 -3.4
06 20.04 ЮЗ 2 10 км 8/0
[Ac trans Ci]
+8.9 -4.8 38 +8 +12 тепло 1024.9 1009.5
09 20.04 З 2 10 км 3/1 1000 м
[Cu hum Ci fib]
+13.1 -7.2 24 +13 +23 тепло 1024.3 1009.1
12 20.04 СЗ 1 10 км 6/4 1000 м
[Sc diur, vesp Ci fib]
+14.8 -7.5 21 +16 +21 тепло 1024.0 1008.9
15 20.04 Ю 1 10 км 6/0
[Ac trans Ci fib]
+14.2 -7.5 22 +15 +16 тепло 1024.1 1009.0 +15.7
18 20.04 ЮВ 1 10 км 6/0
[Ac trans]
+5.9 -4.9 46 +5 +5 по сезону 1025.7 1010.1
21 20.04 ЮВ 1 10 км ясно +2.6 -4.0 62 +1 +1 по сезону 1026.8 1011.0
00 21.04 штиль 0 10 км ясно -1.0 -3.3 84 -2 -2 прохладно 1027.4 1011.4
03 21.04 штиль 0 10 км 3/0
[Ac trans]
-1.1 -4.2 79 -2 -2 прохладно 1028.4 1012.3 -1.8
06 21.04 С 1 10 км 3/0
[Ci fib]
+12.4 -5.1 29 +13 +20 тепло 1028.4 1013.1
09 21.04 СВ 2 10 км 4/4 1000 м
[Cu hum]
+15.8 -6.4 21 +16 +23 тепло 1028.0 1012.9
12 21.04 С 3 10 км 4/3 1000 м
[Cu hum Ac trans]
+15.5 -6.5 21 +15 +19 тепло 1027.2 1012.1
15 21.04 С 2 10 км 8/0
[Ac trans Ci fib]
+15.3 -6.5 22 +15 +16 тепло 1026.6 1011.4 +17.3
18 21.04 СЗ 1 4000 м дым 8/0
[Ac trans]
+9.1 -3.2 42 +9 +9 тепло 1027.7 1012.2
21 21.04 С 1 4000 м дымка 6/0
[Ac trans]
+2.8 -1.0 76 +1 +1 по сезону 1028.5 1012.7
00 22.04 штиль 0 4000 м дымка 4/0
[Ac trans Ci fib]
+0.4 -1.8 85 -1 -1 по сезону 1029.1 1013.1
03 22.04 З 1 6000 м дымка 4/0
[Ac trans Ci fib]
+1.1 -1.3 84 -1 -0 прохладно 1029.3 1013.4 -0.2
06 22.04 СЗ 2 10 км 6/0
[Ac trans]
+13.5 -0.1 39 +13 +17 тепло 1029.1 1013.8
09 22.04 СЗ 6
{10}
10 км 6/6 1380 м
[Cu hum]
+16.1 -1.6 30 +15 +17 тепло 1028.3 1013.2
12 22.04 СЗ 5 10 км 4/4 1500 м
[Cu hum]
+18.0 -2.9 24 +18 +20 тепло 1026.5 1011.5
15 22.04 СЗ 5 10 км ясно +17.1 -3.8 24 +17 +17 тепло 1025.3 1010.3 +18.1
18 22.04 штиль 0 10 км ясно +8.5 -1.6 49 +8 +8 тепло 1026.0 1010.5
21 22.04 штиль 0 10 км ясно +3.6 -1.3 70 +3 +3 по сезону 1026.4 1010.6
00 23.04 штиль 0 4000 м дымка 4/0
[Ci fib]
+1.5 -1.2 82 +1 +1 по сезону 1026.6 1010.7
03 23.04 З 1 10 км 10/0
[Ac und]
+5.5 +1.3 74 +5 +5 по сезону 1026.2 1010.6 +1.3
06 23.04 З 4 10 км 8/0
[Ac As]
+13.1 -1.3 37 +12 +14 тепло 1024.9 1009.7
09 23.04 С 5
{11}
10 км 8/0
[Ac As]
+16.4 -0.4 32 +16 +18 тепло 1024.3 1009.3
12 23.04 С 6
{10}
10 км 8/0
[Ac und]
+17.5 -1.7 27 +17 +18 тепло 1024.3 1009.3
15 23.04 С 5 10 км 3/0
[Ci fib]
+17.2 -4.0 23 +17 +17 тепло 1024.0 1009.1 +18.0
18 23.04 СЗ 1 10 км 3/0
[Ci fib]
+10.9 -1.8 41 +11 +11 тепло 1025.1 1009.7
21 23.04 штиль 0 10 км 3/0
[Ci fib]
+6.6 -0.3 61 +6 +6 по сезону 1025.7 1010.1
00 24.04 СЗ 2 10 км 3/0
[Ci fib]
+4.6 -0.5 69 +2 +2 по сезону 1025.9 1010.3
03 24.04 СЗ 2 10 км 3/0
[Ci fib]
+6.2 +1.6 72 +4 +5 по сезону 1025.9 1010.3 +2.5
06 24.04 СЗ 4 10 км 3/0
[Ac trans Ci fib]
+14.7 +1.4 40 +14 +18 тепло 1025.2 1010.1
09 24.04 СЗ 7-11
{11}
10 км 3/0
[Ci fib]
+20.5 +0.9 27 +20 +23 тепло 1024.4 1009.6
12 24.04 СЗ 6
{11}
10 км ясно +22.7 +0.7 23 +22 +25 комфорт 1023.4 1008.7
15 24.04 СЗ 6
{12}
10 км 4/0
[Ci fib]
+21.0 -1.1 23 +21 +21 комфорт 1022.7 1007.9 +22.9
18 24.04 СЗ 2 10 км 3/0
[Ci fib]
+14.8 +0.2 37 +15 +15 тепло 1023.2 1008.1
21 24.04 штиль 0 10 км ясно +9.8 +1.7 57 +9 +9 тепло 1023.6 1008.2
00 25.04 СЗ 1 10 км 3/0
[Ci fib]
+8.0 +2.0 66 +8 +8 тепло 1023.6 1008.1
03 25.04 СЗ 1 10 км ясно +8.0 +2.4 68 +7 +8 тепло 1023.5 1008.0 +5.9
06 25.04 СЗ 4 10 км ясно +17.3 +0.8 33 +17 +22 тепло 1022.8 1007.9
09 25.04 СЗ 5 10 км ясно +20.9 -0.8 23 +21 +27 комфорт 1022.0 1007.2
12 25.04 СЗ 5
{10}
10 км ясно +21.9 -2.2 20 +21 +25 комфорт 1020.9 1006.2
15 25.04 СЗ 5
{11}
10 км ясно +20.4 -1.0 24 +20 +21 тепло 1020.2 1005.4 +22.0
18 25.04 С 1 10 км 3/0
[Ci fib]
+12.4 +1.1 46 +13 +13 тепло 1021.0 1005.8
21 25.04 СВ 2 10 км 8/0
[Ci fib]
+14.3 -0.5 36 +14 +14 тепло 1021.2 1006.1
00 26.04 С 1 10 км 4/0
[Ci fib]
+10.3 +0.3 50 +10 +10 тепло 1022.1 1006.7

 

Местоположение метеостанции Иваново (Ивановская область, Россия): широта 56.95 долгота 40.97 высота над уровнем моря 126 м.

В архиве по умолчанию представлена погода в Иванове за последнюю неделю. Архивные данные за месяц целиком и за предыдущие месяцы, начиная с января 2011 года, Вы можете получить, выбрав интересующий диапазон дат из раскрывающегося списка и нажав кнопку "Ввод!".


*Определитесь, кто Вы:
робот инопланетянин человек

Внимание! Время в таблицах - всемирное. Для получения местного времени необходимо прибавить поправку, которая равна 3 ч.

Смотрите также архив погоды в соседних городах и на ближайших метеорологических станциях:

Погода в Тейково (Ивановская область, Россия) (28 км)
Погода в Шуе (Ивановская область, Россия) (28 км)
Погода в Пешном (Атырауская область, Казахстан) (43 км)
Погода в Приволжске (Ивановская область, Россия) (51 км)
Погода в Плесе (Ивановская область, Россия) (63 км)
Погода в Вичуге (Ивановская область, Россия) (65 км)
Погода в Суздале (Владимирская область, Россия) (67 км)
Погода в Коврове (Владимирская область, Россия) (70 км)
Погода в Гаврилов-Яме (Ярославская область, Россия) (80 км)
Погода в Костроме (Костромская область, Россия) (88 км)

Пояснения к столбцам:

Ветер - указаны скорость ветра в м/с - средняя за 10 мин, порывы в срок и между сроками (в фигурных скобках) и направление, откуда дует ветер: С - северный, СВ - северо-восточный, В - восточный, ЮВ - юго-восточный, Ю - южный, ЮЗ - юго-западный, З - западный, СЗ - северо-западный.
Видимость - горизонтальная дальность видимости в метрах или километрах. При видимости от 1 до 10 км при отсутствии осадков обычно наблюдается дымка, при ухудшении видимости до 1 км и менее - туман. В сухую погоду видимость может ухудшаться дымом, пылью или мглою.
Явления - указаны атмосферные явления, наблюдавшиеся в срок или в последний час перед сроком; фигурными скобками обозначены явления, наблюдавшиеся между сроками (за 1-3 часа до срока); квадратными скобками обозначены град или гололедные отложения с указанием их диаметра в мм.
Облачность - указаны через наклонную черту общая и нижняя облачность в баллах и высота нижней границы облаков в метрах; квадратными скобками обозначены формы облаков: Ci - перистые, Cs - перисто-слоистые, Cc - перисто-кучевые, Ac - высококучевые, As - высокослоистые, Sc - слоисто-кучевые, Ns - слоисто-дождевые, Cu - кучевые, Cb - кучево-дождевые. Подробнее классификацию облаков см. в Атласе облаков (PDF).
T - Температура воздуха - температура, измеренная на высоте 2 м над землей.
Td - Температура точки росы - температура, при понижении до которой содержащийся в воздухе водяной пар достигнет насыщения.
f - Относительная влажность воздуха - влажноcть воздуха, измеренная на высоте 2 м над землей.
Te - Эффективная температура - температура, которую ощущает одетый по сезону человек в тени. Характеристика душности погоды. При расчете учитывается влияние влажности воздуха и скорости ветра на теплоощущения человека.
Tes - Эффективная температура на солнце - температура, которую ощущает человек, с поправкой на солнечный нагрев. Характеристика знойности погоды. Зависит от высоты солнца над горизонтом, облачности и скорости ветра. Ночью, в пасмурную погоду, а также при ветре 12 м/с и более поправка равна нулю.
P - Атмосферное давление - приведенное к уровню моря атмосферное давление.
Po - Атмосферное давление - измеренное на уровне метеостанции атмосферное давление.
Tmin - Минимальная температура - минимум температуры воздуха на высоте 2 м над землей.
Tmax - Максимальная температура - максимум температуры воздуха на высоте 2 м над землей.
R - Количество осадков - Количество выпавших осадков за период времени, мм. При наведении курсора мыши на число - период времени, за который выпало указанное количество осадков.
R24 - Количество осадков - Количество выпавших осадков за 24 часа, мм.
S - Снежный покров - Высота снежного покрова, см. При наведении курсора мыши на число - состояние снежного покрова и степень покрытия местности в баллах.